RYR792 LHBP-LOWW

Flight info

Callsign RYR792
Flight time N/A
Altitude 16000
Route GILEP DCT NATEX NATEX2W
Aircraft B38M/M-SDE1FGHILORVWXY/HB1

Departure

Time N/A
Airport Budapest Liszt Ferenc International Airport (LHBP)

Arrival

Time 2026-05-04 16:40
Airport Vienna International Airport (LOWW)
Time Latitude Longitude Altitude Speed Heading
2026-05-04 16:19 47.46722 18.33907 13364 ft 389 kts 297°
2026-05-04 16:19 47.50207 18.27777 13223 ft 394 kts 323°
2026-05-04 16:20 47.56572 18.20677 14804 ft 384 kts 301°
2026-05-04 16:20 47.57829 18.13074 15985 ft 384 kts 267°
2026-05-04 16:21 47.58897 18.01225 13676 ft 402 kts 281°
2026-05-04 16:22 47.61032 17.93564 12354 ft 402 kts 298°
2026-05-04 16:22 47.64568 17.83949 10911 ft 395 kts 297°
2026-05-04 16:23 47.68404 17.73292 9965 ft 388 kts 296°
2026-05-04 16:24 47.73472 17.59123 9681 ft 385 kts 296°
2026-05-04 16:25 47.75965 17.52126 8675 ft 378 kts 296°
2026-05-04 16:26 47.81245 17.38720 6555 ft 371 kts 304°
2026-05-04 16:26 47.85729 17.29408 4882 ft 369 kts 303°
2026-05-04 16:27 47.88666 17.23188 4075 ft 362 kts 302°
2026-05-04 16:28 47.93312 17.14127 3976 ft 370 kts 311°
2026-05-04 16:28 47.98581 17.05658 3972 ft 372 kts 310°
2026-05-04 16:29 48.05538 16.94199 3977 ft 374 kts 310°
2026-05-04 16:30 48.10756 16.85563 3951 ft 375 kts 310°
2026-05-04 16:31 48.14267 16.79735 3960 ft 373 kts 310°
2026-05-04 16:31 48.19472 16.71071 3948 ft 374 kts 309°
2026-05-04 16:32 48.25945 16.64916 3964 ft 373 kts 343°
2026-05-04 16:33 48.30714 16.62849 3976 ft 341 kts 339°
2026-05-04 16:33 48.33966 16.58460 3967 ft 303 kts 290°
2026-05-04 16:34 48.34145 16.52663 3914 ft 266 kts 256°
2026-05-04 16:34 48.33654 16.50095 3880 ft 246 kts 235°
2026-05-04 16:35 48.30101 16.48433 3712 ft 164 kts 145°
2026-05-04 16:35 48.27639 16.50918 3586 ft 142 kts 157°
2026-05-04 16:36 48.26700 16.51477 3583 ft 148 kts 161°
2026-05-04 16:36 48.24730 16.52392 3135 ft 149 kts 164°
2026-05-04 16:37 48.22746 16.53242 2730 ft 148 kts 164°
2026-05-04 16:37 48.21755 16.53665 2523 ft 148 kts 163°
2026-05-04 16:37 48.19773 16.54508 2139 ft 148 kts 164°
2026-05-04 16:38 48.17790 16.55350 1728 ft 148 kts 163°
2026-05-04 16:39 48.14794 16.56624 1178 ft 149 kts 163°
2026-05-04 16:39 48.12793 16.57469 802 ft 149 kts 160°
2026-05-04 16:40 48.10860 16.58296 618 ft 127 kts 164°
2026-05-04 16:40 48.10137 16.58380 620 ft 21 kts 244°
2026-05-04 16:41 48.10423 16.58193 617 ft 37 kts 343°
2026-05-04 16:41 48.11198 16.57306 614 ft 65 kts 296°
2026-05-04 16:42 48.11760 16.55795 610 ft 22 kts 24°
2026-05-04 16:43 48.11894 16.55944 616 ft 2 kts 147°
2026-05-04 16:43 48.11853 16.55998 611 ft 0 kts 125°